Weather History for Altus AFB, OK

Change the Weather History Date:

Friday, January 17, 2014

  Actual Average Record
Temperature  
Mean Temperature 41 °F -  
Max Temperature 54 °F 50 °F 64 °F (1999)
Min Temperature 28 °F 27 °F 14 °F (1997)
Degree Days  
Heating Degree Days 24    
Moisture  
Dew Point 14 °F    
Average Humidity 35    
Maximum Humidity 54    
Minimum Humidity 20    
Precipitation  
Precipitation 0.00 in - - ()
Sea Level Pressure  
Sea Level Pressure 30.27 in    
Wind  
Wind Speed 9 mph (West)    
Max Wind Speed 15 mph    
Max Gust Speed 22 mph    
Visibility 10 miles    
Events      
Averages and records for this station are not official NWS values.
T = Trace of Precipitation, MM = Missing Value Source: NWS Daily Summary

Daily Weather History Graph

Daily Weather History Graph

Search for Another Location

Airport:

Trip Planner

Search our weather history database for the weather conditions in past years. The results will help you decide how hot, cold, wet, or windy it might be!

Date:

Astronomy

Jan. 17, 2014 Rise Set
Actual Time 7:43 AM CST 5:51 PM CST
Civil Twilight 7:15 AM CST 6:18 PM CST
Nautical Twilight 6:45 AM CST 6:49 PM CST
Astronomical Twilight 6:14 AM CST 7:19 PM CST
Moon 7:33 PM CST (1/17) 8:17 AM CST (1/17)
Length of Visible Light 11h 02m
Length of Day
10h 08m
Full, 98% of the Moon is Illuminated
Jan 17
Full
Jan 23
Last Quarter
Jan 30
New
Feb 6
First Quarter
Feb 14
Full

Hourly Weather History & Observations

Time (CST) Temp. Windchill Dew Point Humidity Pressure Visibility Wind Dir Wind Speed Gust Speed Precip Events Conditions
12:58 AM 49.5 °F - 10.0 °F 20% 30.26 in 10.0 mi NNW 13.8 mph 21.9 mph N/A   Partly Cloudy
1:58 AM 47.3 °F - 10.6 °F 23% 30.27 in 10.0 mi NNW 10.4 mph - N/A   Partly Cloudy
2:58 AM 45.7 °F 39.1 °F 9.0 °F 22% 30.29 in 10.0 mi North 15.0 mph - N/A   Clear
3:58 AM 43.0 °F 35.7 °F 10.4 °F 27% 30.31 in 10.0 mi NNE 15.0 mph - N/A   Overcast
4:58 AM 34.9 °F 28.3 °F 13.5 °F 41% 30.33 in 10.0 mi NE 8.1 mph - N/A   Mostly Cloudy
5:58 AM 34.3 °F 28.4 °F 12.7 °F 41% 30.35 in 10.0 mi NNE 6.9 mph - N/A   Scattered Clouds
6:58 AM 28.8 °F 21.7 °F 11.5 °F 49% 30.35 in 10.0 mi North 6.9 mph - N/A   Clear
7:58 AM 29.1 °F 23.0 °F 11.3 °F 47% 30.38 in 10.0 mi North 5.8 mph - N/A   Clear
8:58 AM 36.5 °F 33.9 °F 11.1 °F 35% 30.38 in 10.0 mi North 3.5 mph - N/A   Clear
9:58 AM 40.6 °F 36.0 °F 10.2 °F 29% 30.38 in 10.0 mi NW 6.9 mph - N/A   Clear
10:58 AM 42.3 °F 39.4 °F 12.0 °F 29% 30.38 in 10.0 mi WNW 4.6 mph - N/A   Clear
11:58 AM 46.0 °F 41.9 °F 12.7 °F 26% 30.35 in 10.0 mi WSW 8.1 mph - N/A   Clear
12:58 PM 48.7 °F - 14.5 °F 26% 30.28 in 10.0 mi Variable 6.9 mph - N/A   Clear
1:58 PM 51.3 °F - 15.3 °F 24% 30.25 in 10.0 mi West 5.8 mph - N/A   Clear
2:58 PM 52.9 °F - 15.8 °F 23% 30.22 in 10.0 mi SW 8.1 mph - N/A   Clear
3:58 PM 54.0 °F - 16.2 °F 23% 30.22 in 10.0 mi SW 9.2 mph - N/A   Clear
4:58 PM 53.4 °F - 16.7 °F 24% 30.21 in 10.0 mi SW 8.1 mph - N/A   Clear
5:58 PM 44.8 °F 40.4 °F 18.5 °F 35% 30.21 in 10.0 mi South 8.1 mph - N/A   Clear
6:58 PM 37.0 °F 29.8 °F 17.2 °F 45% 30.19 in 10.0 mi South 10.4 mph - N/A   Clear
7:58 PM 36.3 °F 29.5 °F 15.8 °F 43% 30.18 in 10.0 mi SSE 9.2 mph - N/A   Clear
8:58 PM 33.3 °F 27.9 °F 16.2 °F 50% 30.17 in 10.0 mi SSE 5.8 mph - N/A   Clear
9:58 PM 31.6 °F 27.0 °F 16.0 °F 52% 30.14 in 10.0 mi SSE 4.6 mph - N/A   Clear
10:58 PM 33.1 °F 30.0 °F 17.4 °F 53% 30.14 in 10.0 mi SE 3.5 mph - N/A   Clear
11:58 PM 33.1 °F 27.7 °F 18.1 °F 54% 30.12 in 10.0 mi SSW 5.8 mph - N/A   Clear